TimeCDT,TemperatureF,Dew PointF,Humidity,Sea Level PressureIn,VisibilityMPH,Wind Direction,Wind SpeedMPH,Gust SpeedMPH,PrecipitationIn,Events,Conditions,WindDirDegrees,DateUTC
12:15 AM,39.2,32.0,75,30.34,10.0,North,11.5,19.6,N/A,,Overcast,360,2013-05-02 05:15:00
12:35 AM,39.2,32.0,75,30.35,10.0,North,12.7,19.6,N/A,,Overcast,10,2013-05-02 05:35:00
12:55 AM,39.2,32.0,75,30.36,10.0,North,11.5,18.4,N/A,,Overcast,360,2013-05-02 05:55:00
1:35 AM,37.4,32.0,81,30.36,10.0,North,12.7,18.4,N/A,,Mostly Cloudy,360,2013-05-02 06:35:00
1:55 AM,37.4,32.0,81,30.36,10.0,North,11.5,17.3,N/A,,Overcast,350,2013-05-02 06:55:00
2:15 AM,37.4,32.0,81,30.35,10.0,North,12.7,-,N/A,,Overcast,10,2013-05-02 07:15:00
2:35 AM,37.4,32.0,81,30.35,10.0,North,12.7,18.4,N/A,,Overcast,350,2013-05-02 07:35:00
2:55 AM,37.4,32.0,81,30.35,10.0,North,8.1,19.6,N/A,,Overcast,350,2013-05-02 07:55:00
3:15 AM,37.4,32.0,81,30.34,10.0,North,12.7,18.4,N/A,,Overcast,360,2013-05-02 08:15:00
3:35 AM,37.4,32.0,81,30.33,10.0,North,12.7,19.6,N/A,,Overcast,10,2013-05-02 08:35:00
3:55 AM,37.4,32.0,81,30.34,10.0,North,12.7,21.9,N/A,,Overcast,360,2013-05-02 08:55:00
4:15 AM,37.4,32.0,81,30.33,10.0,NNE,11.5,18.4,N/A,,Overcast,20,2013-05-02 09:15:00
4:35 AM,37.4,32.0,81,30.34,10.0,North,10.4,21.9,N/A,,Overcast,10,2013-05-02 09:35:00
4:55 AM,37.4,32.0,81,30.35,10.0,North,12.7,17.3,N/A,,Overcast,10,2013-05-02 09:55:00
5:15 AM,37.4,32.0,81,30.35,10.0,North,11.5,19.6,N/A,,Overcast,360,2013-05-02 10:15:00
5:35 AM,37.4,32.0,81,30.35,10.0,North,10.4,-,N/A,,Overcast,10,2013-05-02 10:35:00
5:55 AM,37.4,32.0,81,30.37,10.0,NNW,9.2,20.7,N/A,,Overcast,340,2013-05-02 10:55:00
6:15 AM,35.6,32.0,87,30.38,10.0,NNW,10.4,16.1,N/A,,Overcast,340,2013-05-02 11:15:00
6:35 AM,35.6,32.0,87,30.37,10.0,North,11.5,20.7,N/A,,Overcast,360,2013-05-02 11:35:00
6:55 AM,35.6,32.0,87,30.37,7.0,North,9.2,19.6,N/A,Rain,Light Rain,350,2013-05-02 11:55:00
7:15 AM,35.6,32.0,87,30.39,10.0,NNW,10.4,16.1,N/A,Rain,Light Rain,330,2013-05-02 12:15:00
7:35 AM,33.8,32.0,93,30.36,10.0,North,12.7,18.4,N/A,,Light Drizzle,360,2013-05-02 12:35:00
7:55 AM,33.8,33.8,100,30.41,10.0,NNW,12.7,-,N/A,,Overcast,330,2013-05-02 12:55:00
8:15 AM,33.8,32.0,93,30.41,10.0,North,8.1,-,N/A,Rain,Light Rain,360,2013-05-02 13:15:00
8:35 AM,33.8,32.0,93,30.37,1.5,North,13.8,-,0.08,,Overcast,10,2013-05-02 13:35:00
8:55 AM,33.8,33.8,100,30.38,2.5,North,10.4,16.1,0.12,Rain,Rain,10,2013-05-02 13:55:00
9:15 AM,33.8,33.8,100,30.40,4.0,North,6.9,-,0.02,Rain,Light Rain,360,2013-05-02 14:15:00
9:35 AM,33.8,33.8,100,30.40,5.0,NNW,6.9,-,0.03,Rain,Light Rain,340,2013-05-02 14:35:00
9:55 AM,35.6,33.8,93,30.39,10.0,North,8.1,-,0.04,Rain,Rain,350,2013-05-02 14:55:00
10:15 AM,35.6,33.8,93,30.39,10.0,North,10.4,-,N/A,,Overcast,350,2013-05-02 15:15:00
10:35 AM,35.6,33.8,93,30.38,10.0,North,12.7,21.9,N/A,,Overcast,360,2013-05-02 15:35:00
10:55 AM,35.6,33.8,93,30.38,10.0,North,15.0,19.6,N/A,,Overcast,350,2013-05-02 15:55:00
11:15 AM,35.6,33.8,93,30.38,10.0,North,11.5,19.6,N/A,,Overcast,360,2013-05-02 16:15:00
11:35 AM,35.6,33.8,93,30.38,10.0,North,15.0,18.4,N/A,,Overcast,360,2013-05-02 16:35:00
11:55 AM,35.6,33.8,93,30.37,10.0,North,15.0,18.4,N/A,,Overcast,350,2013-05-02 16:55:00
12:15 PM,35.6,33.8,93,30.39,10.0,North,12.7,16.1,N/A,,Overcast,10,2013-05-02 17:15:00
12:35 PM,35.6,33.8,93,30.40,10.0,NNW,11.5,17.3,N/A,,Overcast,340,2013-05-02 17:35:00
12:55 PM,35.6,33.8,93,30.39,10.0,NNW,11.5,18.4,N/A,,Overcast,340,2013-05-02 17:55:00
1:15 PM,35.6,33.8,93,30.37,7.0,North,11.5,16.1,N/A,,Overcast,350,2013-05-02 18:15:00
1:35 PM,35.6,33.8,93,30.37,7.0,NNW,9.2,-,N/A,,Overcast,340,2013-05-02 18:35:00
1:55 PM,35.6,33.8,93,30.37,10.0,North,12.7,23.0,N/A,,Overcast,360,2013-05-02 18:55:00
2:15 PM,35.6,32.0,87,30.38,10.0,North,9.2,19.6,N/A,,Overcast,350,2013-05-02 19:15:00
2:35 PM,35.6,32.0,87,30.39,10.0,North,9.2,-,N/A,,Overcast,350,2013-05-02 19:35:00
2:55 PM,35.6,32.0,87,30.39,10.0,North,9.2,18.4,N/A,,Overcast,360,2013-05-02 19:55:00
3:15 PM,35.6,32.0,87,30.37,10.0,NNW,11.5,-,N/A,,Overcast,340,2013-05-02 20:15:00
3:35 PM,35.6,32.0,87,30.36,10.0,North,12.7,18.4,N/A,,Overcast,350,2013-05-02 20:35:00
3:55 PM,35.6,32.0,87,30.36,10.0,NNW,11.5,19.6,N/A,,Overcast,340,2013-05-02 20:55:00
4:15 PM,35.6,32.0,87,30.35,10.0,North,15.0,19.6,N/A,,Overcast,350,2013-05-02 21:15:00
4:35 PM,33.8,32.0,93,30.36,10.0,North,13.8,20.7,N/A,,Light Drizzle,350,2013-05-02 21:35:00
4:55 PM,33.8,32.0,93,30.37,10.0,NNW,9.2,19.6,N/A,,Mostly Cloudy,330,2013-05-02 21:55:00
5:15 PM,33.8,32.0,93,30.36,4.0,North,12.7,19.6,N/A,Rain,Rain,350,2013-05-02 22:15:00
5:35 PM,33.8,32.0,93,30.37,2.5,North,9.2,19.6,0.03,Snow,Snow,360,2013-05-02 22:35:00
5:55 PM,33.8,32.0,93,30.36,5.0,NNW,9.2,-,0.04,Rain,Light Rain,340,2013-05-02 22:55:00
6:15 PM,33.8,32.0,93,30.36,10.0,North,10.4,16.1,N/A,,Light Drizzle,360,2013-05-02 23:15:00
6:55 PM,32.0,32.0,100,30.35,10.0,North,11.5,-,N/A,,Light Drizzle,350,2013-05-02 23:55:00
7:00 PM,33.8,32.0,93,30.35,10.0,North,12.7,17.3,N/A,,Light Drizzle,360,2013-05-03 00:00:00
7:15 PM,32.0,32.0,100,30.34,10.0,North,12.7,19.6,N/A,,Mostly Cloudy,360,2013-05-03 00:15:00
7:35 PM,32.0,32.0,100,30.35,10.0,North,11.5,17.3,N/A,,Mostly Cloudy,360,2013-05-03 00:35:00
7:55 PM,32.0,32.0,100,30.35,7.0,North,8.1,-,N/A,,Mostly Cloudy,10,2013-05-03 00:55:00
8:35 PM,32.0,30.2,93,30.36,10.0,North,8.1,-,N/A,,Mostly Cloudy,360,2013-05-03 01:35:00
8:55 PM,32.0,30.2,93,30.37,10.0,North,6.9,-,N/A,,Mostly Cloudy,350,2013-05-03 01:55:00
9:15 PM,32.0,32.0,100,30.37,10.0,North,6.9,-,N/A,,Mostly Cloudy,360,2013-05-03 02:15:00
9:35 PM,32.0,32.0,100,30.36,10.0,North,6.9,-,N/A,,Overcast,350,2013-05-03 02:35:00
9:55 PM,32.0,30.2,93,30.36,10.0,North,10.4,-,N/A,,Mostly Cloudy,350,2013-05-03 02:55:00
10:15 PM,32.0,30.2,93,30.35,10.0,North,8.1,-,N/A,,Mostly Cloudy,360,2013-05-03 03:15:00
10:35 PM,32.0,30.2,93,30.34,10.0,North,6.9,-,N/A,,Overcast,360,2013-05-03 03:35:00
10:55 PM,32.0,30.2,93,30.35,10.0,North,6.9,-,N/A,,Overcast,360,2013-05-03 03:55:00
11:15 PM,32.0,30.2,93,30.32,10.0,Calm,Calm,-,N/A,,Mostly Cloudy,0,2013-05-03 04:15:00
11:35 PM,32.0,30.2,93,30.32,7.0,Calm,Calm,-,N/A,,Mostly Cloudy,0,2013-05-03 04:35:00
11:55 PM,32.0,32.0,100,30.32,7.0,Calm,Calm,-,N/A,,Overcast,0,2013-05-03 04:55:00